When you browse on this site, cookies collect data to enhance your experience and personalize the content and advertising you see.
Visit our Privacy Policy to learn more. By continuing to use the site, you agree to this use of cookies and data.
  • In Latvia
  • List of Countries
  • For 7 days
  • Water Temperature
  • Satellite Maps
  • Weather Map
  • Weather Widgets
  • user-avatar
    Login

    Hourly Weather Hasselt

    Today, 18 February, Monday

    Time Temperature Precipitation Wind Pressure Humidity
    00:00 +8°C° 0 mm 2 mps 761 mmHg 80%
    01:00 +8°C° 0 mm 2 mps 761 mmHg 81%
    02:00 +7°C° 0 mm 2 mps 761 mmHg 82%
    03:00 +7°C° 0 mm 2 mps 761 mmHg 83%
    04:00 +7°C° 0 mm 2 mps 761 mmHg 84%
    05:00 +6°C° 0 mm 2 mps 761 mmHg 84%
    06:00 +6°C° 0 mm 2 mps 761 mmHg 83%
    07:00 +7°C° 0 mm 2 mps 761 mmHg 79%
    08:00 +8°C° 0 mm 3 mps 760 mmHg 75%
    09:00 +9°C° 0 mm 3 mps 760 mmHg 71%
    10:00 +11°C° 0 mm 3 mps 760 mmHg 67%
    11:00 +12°C° 0 mm 3 mps 759 mmHg 63%
    12:00 +13°C° 0 mm 3 mps 759 mmHg 58%
    13:00 +14°C° 0 mm 4 mps 759 mmHg 59%
    14:00 +14°C° 0 mm 4 mps 758 mmHg 59%
    15:00 +14°C° 0 mm 4 mps 758 mmHg 59%
    16:00 +12°C° 0 mm 4 mps 758 mmHg 66%
    17:00 +11°C° 0 mm 3 mps 758 mmHg 73%
    18:00 +9°C° 0 mm 3 mps 758 mmHg 80%
    19:00 +8°C° 0 mm 4 mps 758 mmHg 80%
    20:00 +8°C° 0 mm 4 mps 758 mmHg 80%
    21:00 +7°C° 0 mm 4 mps 758 mmHg 80%
    22:00 +7°C° 0 mm 4 mps 758 mmHg 81%
    23:00 +7°C° 0 mm 4 mps 758 mmHg 82%

    Tomorrow, 19 February, Tuesday

    Time Temperature Precipitation Wind Pressure Humidity
    00:00 +6°C° 0 mm 4 mps 758 mmHg 82%
    01:00 +6°C° 0.3 mm 4 mps 758 mmHg 85%
    02:00 +7°C° 0.3 mm 3 mps 758 mmHg 88%
    03:00 +7°C° 0.3 mm 3 mps 758 mmHg 91%
    04:00 +7°C° 0.3 mm 3 mps 759 mmHg 92%
    05:00 +6°C° 0.3 mm 4 mps 759 mmHg 92%
    06:00 +6°C° 0.3 mm 4 mps 759 mmHg 92%
    07:00 +6°C° 0 mm 4 mps 759 mmHg 88%
    08:00 +6°C° 0 mm 4 mps 760 mmHg 85%
    09:00 +7°C° 0 mm 5 mps 760 mmHg 81%
    10:00 +8°C° 0 mm 5 mps 760 mmHg 76%
    11:00 +9°C° 0 mm 5 mps 761 mmHg 71%
    12:00 +9°C° 0 mm 5 mps 761 mmHg 66%
    13:00 +10°C° 0 mm 5 mps 761 mmHg 65%
    14:00 +10°C° 0 mm 5 mps 761 mmHg 64%
    15:00 +10°C° 0 mm 5 mps 761 mmHg 62%
    16:00 +10°C° 0 mm 4 mps 761 mmHg 68%
    17:00 +8°C° 0 mm 3 mps 761 mmHg 74%
    18:00 +7°C° 0 mm 2 mps 762 mmHg 79%
    19:00 +7°C° 0 mm 2 mps 762 mmHg 81%
    20:00 +6°C° 0 mm 2 mps 762 mmHg 84%
    21:00 +5°C° 0 mm 3 mps 762 mmHg 86%
    22:00 +5°C° 0 mm 3 mps 762 mmHg 87%
    23:00 +5°C° 0 mm 3 mps 762 mmHg 88%

    Day after tomorrow, 20 February, Wednesday

    Time Temperature Precipitation Wind Pressure Humidity
    00:00 +4°C° 0 mm 3 mps 762 mmHg 89%
    01:00 +4°C° 0 mm 3 mps 762 mmHg 87%
    02:00 +4°C° 0 mm 3 mps 762 mmHg 86%
    03:00 +4°C° 0 mm 3 mps 762 mmHg 84%
    04:00 +4°C° 0 mm 3 mps 762 mmHg 82%
    05:00 +4°C° 0 mm 3 mps 762 mmHg 80%
    06:00 +4°C° 0 mm 4 mps 762 mmHg 78%
    07:00 +5°C° 0 mm 4 mps 762 mmHg 77%
    08:00 +6°C° 0 mm 5 mps 763 mmHg 76%
    09:00 +6°C° 0 mm 5 mps 763 mmHg 74%
    10:00 +7°C° 0 mm 5 mps 763 mmHg 70%
    11:00 +9°C° 0 mm 5 mps 763 mmHg 65%
    12:00 +10°C° 0 mm 5 mps 763 mmHg 61%
    13:00 +10°C° 0 mm 5 mps 763 mmHg 60%
    14:00 +10°C° 0 mm 5 mps 763 mmHg 59%
    15:00 +12°C° 0 mm 5 mps 763 mmHg 59%
    16:00 +11°C° 0 mm 4 mps 763 mmHg 64%
    17:00 +8°C° 0 mm 4 mps 763 mmHg 69%
    18:00 +8°C° 0 mm 3 mps 764 mmHg 74%
    19:00 +8°C° 0 mm 3 mps 764 mmHg 75%
    20:00 +8°C° 0 mm 3 mps 765 mmHg 76%
    21:00 +7°C° 0 mm 3 mps 765 mmHg 77%
    22:00 +7°C° 0 mm 3 mps 765 mmHg 79%
    23:00 +5°C° 0 mm 3 mps 765 mmHg 80%

    21 February, Thursday

    Time Temperature Precipitation Wind Pressure Humidity
    00:00 +5°C° 0 mm 3 mps 766 mmHg 82%
    01:00 +5°C° 0 mm 3 mps 766 mmHg 83%
    02:00 +5°C° 0 mm 3 mps 766 mmHg 84%
    03:00 +4°C° 0 mm 3 mps 766 mmHg 85%
    04:00 +4°C° 0 mm 3 mps 766 mmHg 87%
    05:00 +4°C° 0 mm 3 mps 767 mmHg 88%
    06:00 +4°C° 0 mm 3 mps 767 mmHg 89%
    07:00 +5°C° 0 mm 3 mps 767 mmHg 86%
    08:00 +7°C° 0 mm 3 mps 768 mmHg 82%
    09:00 +8°C° 0 mm 3 mps 768 mmHg 79%
    10:00 +9°C° 0 mm 3 mps 768 mmHg 75%
    11:00 +11°C° 0 mm 3 mps 768 mmHg 70%
    12:00 +12°C° 0 mm 3 mps 769 mmHg 66%
    13:00 +13°C° 0 mm 3 mps 769 mmHg 65%
    14:00 +13°C° 0 mm 3 mps 768 mmHg 64%
    15:00 +13°C° 0 mm 3 mps 768 mmHg 63%
    16:00 +13°C° 0 mm 2 mps 769 mmHg 69%
    17:00 +10°C° 0 mm 2 mps 769 mmHg 75%
    18:00 +9°C° 0 mm 2 mps 769 mmHg 82%
    19:00 +9°C° 0 mm 2 mps 770 mmHg 83%
    20:00 +8°C° 0 mm 2 mps 771 mmHg 85%
    21:00 +8°C° 0 mm 2 mps 771 mmHg 86%
    22:00 +7°C° 0 mm 2 mps 771 mmHg 87%
    23:00 +7°C° 0 mm 2 mps 772 mmHg 87%

    22 February, Friday

    Time Temperature Precipitation Wind Pressure Humidity
    00:00 +6°C° 0 mm 2 mps 772 mmHg 87%
    01:00 +6°C° 0 mm 2 mps 772 mmHg 86%
    02:00 +6°C° 0 mm 2 mps 772 mmHg 86%
    03:00 +6°C° 0 mm 2 mps 772 mmHg 85%
    04:00 +7°C° 0 mm 1 mps 773 mmHg 85%
    05:00 +6°C° 0 mm 1 mps 773 mmHg 85%
    06:00 +6°C° 0 mm 1 mps 773 mmHg 85%
    07:00 +7°C° 0 mm 1 mps 774 mmHg 80%
    08:00 +8°C° 0 mm 1 mps 774 mmHg 75%
    09:00 +10°C° 0 mm 1 mps 774 mmHg 70%
    10:00 +11°C° 0 mm 1 mps 774 mmHg 64%
    11:00 +12°C° 0 mm 0 mps 774 mmHg 57%
    12:00 +14°C° 0 mm 0 mps 775 mmHg 51%
    13:00 +14°C° 0 mm 0 mps 774 mmHg 51%
    14:00 +15°C° 0 mm 1 mps 774 mmHg 51%
    15:00 +15°C° 0 mm 1 mps 774 mmHg 51%
    16:00 +14°C° 0 mm 1 mps 774 mmHg 57%
    17:00 +12°C° 0 mm 1 mps 774 mmHg 63%
    18:00 +10°C° 0 mm 2 mps 775 mmHg 70%
    19:00 +9°C° 0 mm 2 mps 775 mmHg 72%
    20:00 +9°C° 0 mm 2 mps 775 mmHg 73%
    21:00 +9°C° 0 mm 2 mps 775 mmHg 75%
    22:00 +9°C° 0 mm 1 mps 775 mmHg 76%
    23:00 +9°C° 0 mm 1 mps 775 mmHg 76%

    23 February, Saturday

    Time Temperature Precipitation Wind Pressure Humidity
    00:00 +9°C° 0 mm 1 mps 775 mmHg 76%
    01:00 +8°C° 0 mm 1 mps 775 mmHg 76%
    02:00 +8°C° 0 mm 1 mps 775 mmHg 76%
    03:00 +8°C° 0 mm 1 mps 775 mmHg 75%
    04:00 +8°C° 0 mm 1 mps 775 mmHg 73%
    05:00 +8°C° 0 mm 1 mps 775 mmHg 72%
    06:00 +7°C° 0 mm 1 mps 775 mmHg 70%
    07:00 +9°C° 0 mm 1 mps 775 mmHg 66%
    08:00 +10°C° 0 mm 1 mps 775 mmHg 61%
    09:00 +11°C° 0 mm 0 mps 775 mmHg 57%
    10:00 +13°C° 0 mm 1 mps 775 mmHg 52%
    11:00 +15°C° 0 mm 1 mps 775 mmHg 48%
    12:00 +18°C° 0 mm 1 mps 775 mmHg 43%
    13:00 +18°C° 0 mm 1 mps 774 mmHg 45%
    14:00 +19°C° 0 mm 1 mps 774 mmHg 46%
    15:00 +19°C° 0 mm 1 mps 774 mmHg 47%
    16:00 +16°C° 0 mm 1 mps 774 mmHg 53%
    17:00 +15°C° 0 mm 1 mps 774 mmHg 60%
    18:00 +13°C° 0 mm 2 mps 774 mmHg 66%
    19:00 +12°C° 0 mm 1 mps 774 mmHg 69%
    20:00 +12°C° 0 mm 1 mps 774 mmHg 71%
    21:00 +11°C° 0 mm 1 mps 774 mmHg 74%
    22:00 +11°C° 0 mm 1 mps 774 mmHg 74%
    23:00 +11°C° 0 mm 1 mps 774 mmHg 74%
    Show more